DLH161 EKCH-EDDH

Flight info

Callsign DLH161
Flight time 0h 39m
Altitude 24000
Route NEXEN T503 MICOS/N0436F280 N850 BOGMU BOGMU5A
Aircraft A320/M-SDE3FGHIRWY/LB1

Departure

Time 2026-04-30 17:52
Airport Copenhagen Kastrup Airport (EKCH)

Arrival

Time 2026-04-30 18:32
Airport Hamburg Helmut Schmidt Airport (EDDH)
Time Latitude Longitude Altitude Speed Heading
2026-04-30 17:39 55.62840 12.63880 24 ft 0 kts 104°
2026-04-30 17:41 55.62489 12.63804 23 ft 13 kts 152°
2026-04-30 17:42 55.62341 12.64118 20 ft 20 kts 124°
2026-04-30 17:42 55.62040 12.64462 26 ft 15 kts 170°
2026-04-30 17:43 55.61823 12.64535 24 ft 14 kts 168°
2026-04-30 17:44 55.61730 12.64565 25 ft 10 kts 170°
2026-04-30 17:44 55.61348 12.64188 24 ft 22 kts 213°
2026-04-30 17:46 55.60823 12.63595 24 ft 10 kts 194°
2026-04-30 17:47 55.60766 12.63644 24 ft 0 kts 132°
2026-04-30 17:48 55.60725 12.63726 24 ft 8 kts 131°
2026-04-30 17:48 55.60694 12.63892 29 ft 6 kts 46°
2026-04-30 17:49 55.60698 12.63897 30 ft 0 kts 44°
2026-04-30 17:50 55.60697 12.63897 30 ft 0 kts 44°
2026-04-30 17:51 55.61347 12.64903 27 ft 127 kts 41°
2026-04-30 17:52 55.63737 12.68602 1736 ft 152 kts 37°
2026-04-30 17:53 55.63435 12.75049 4576 ft 195 kts 199°
2026-04-30 17:54 55.58228 12.67915 6159 ft 281 kts 219°
2026-04-30 17:55 55.51839 12.58882 9467 ft 302 kts 218°
2026-04-30 17:56 55.44661 12.48904 11382 ft 367 kts 218°
2026-04-30 17:57 55.38477 12.40352 13356 ft 385 kts 217°
2026-04-30 17:58 55.32024 12.31452 15299 ft 400 kts 218°
2026-04-30 17:59 55.23142 12.19252 17782 ft 413 kts 218°
2026-04-30 18:00 55.13958 12.06745 20044 ft 424 kts 219°
2026-04-30 18:00 55.06891 11.97163 21570 ft 433 kts 219°
2026-04-30 18:01 55.02105 11.90692 22568 ft 438 kts 219°
2026-04-30 18:02 54.94790 11.80854 23984 ft 447 kts 218°
2026-04-30 18:02 54.87396 11.70940 24445 ft 450 kts 219°
2026-04-30 18:03 54.79948 11.61031 24435 ft 449 kts 218°
2026-04-30 18:04 54.72341 11.51526 24445 ft 450 kts 216°
2026-04-30 18:05 54.62146 11.38974 24452 ft 450 kts 217°
2026-04-30 18:06 54.51933 11.26401 23723 ft 449 kts 216°
2026-04-30 18:07 54.41815 11.14131 22650 ft 444 kts 216°
2026-04-30 18:08 54.34287 11.05038 21866 ft 439 kts 215°
2026-04-30 18:09 54.26000 10.90422 20276 ft 421 kts 233°
2026-04-30 18:10 54.18972 10.74855 18261 ft 407 kts 232°
2026-04-30 18:11 54.12313 10.60224 16967 ft 354 kts 231°
2026-04-30 18:11 54.07867 10.50516 15488 ft 341 kts 231°
2026-04-30 18:12 54.03604 10.41242 14040 ft 329 kts 230°
2026-04-30 18:13 54.00719 10.35317 12891 ft 321 kts 220°
2026-04-30 18:13 53.95580 10.30923 11524 ft 306 kts 186°
2026-04-30 18:14 53.90771 10.31275 11448 ft 296 kts 165°
2026-04-30 18:15 53.85384 10.35848 11451 ft 290 kts 144°
2026-04-30 18:15 53.80281 10.41243 11414 ft 291 kts 144°
2026-04-30 18:16 53.76768 10.44368 10726 ft 286 kts 165°
2026-04-30 18:16 53.72917 10.43083 9975 ft 297 kts 214°
2026-04-30 18:17 53.71513 10.40534 9584 ft 299 kts 235°
2026-04-30 18:17 53.70379 10.37588 9190 ft 298 kts 236°
2026-04-30 18:17 53.68132 10.31751 8481 ft 295 kts 235°
2026-04-30 18:18 53.66982 10.28876 8426 ft 292 kts 231°
2026-04-30 18:18 53.65733 10.26275 8264 ft 281 kts 228°
2026-04-30 18:18 53.64519 10.23802 8034 ft 268 kts 228°
2026-04-30 18:18 53.63345 10.21406 7782 ft 263 kts 228°
2026-04-30 18:19 53.62181 10.19032 7536 ft 261 kts 228°
2026-04-30 18:19 53.61027 10.16688 7292 ft 259 kts 228°
2026-04-30 18:19 53.59875 10.14352 7051 ft 258 kts 228°
2026-04-30 18:19 53.58734 10.12034 6809 ft 257 kts 228°
2026-04-30 18:20 53.57595 10.09722 6542 ft 256 kts 228°
2026-04-30 18:20 53.56463 10.07427 6297 ft 254 kts 227°
2026-04-30 18:20 53.55341 10.05150 6038 ft 252 kts 227°
2026-04-30 18:20 53.54224 10.02890 5792 ft 250 kts 227°
2026-04-30 18:21 53.53117 10.00652 5541 ft 248 kts 227°
2026-04-30 18:21 53.52016 9.98427 5292 ft 246 kts 227°
2026-04-30 18:21 53.50924 9.96227 5075 ft 244 kts 227°
2026-04-30 18:21 53.49833 9.94050 5006 ft 243 kts 227°
2026-04-30 18:22 53.48741 9.91872 5008 ft 244 kts 227°
2026-04-30 18:22 53.46920 9.88245 5011 ft 244 kts 227°
2026-04-30 18:22 53.45466 9.85355 5010 ft 245 kts 227°
2026-04-30 18:23 53.44366 9.83174 5011 ft 245 kts 227°
2026-04-30 18:23 53.43268 9.80996 5002 ft 244 kts 227°
2026-04-30 18:23 53.42170 9.78821 5003 ft 244 kts 227°
2026-04-30 18:23 53.41071 9.76646 5003 ft 244 kts 227°
2026-04-30 18:24 53.39230 9.73002 5006 ft 244 kts 227°
2026-04-30 18:24 53.38319 9.70659 5002 ft 246 kts 250°
2026-04-30 18:24 53.38186 9.67825 5002 ft 247 kts 283°
2026-04-30 18:25 53.38936 9.65281 5006 ft 245 kts 315°
2026-04-30 18:25 53.41972 9.63691 4823 ft 233 kts 17°
2026-04-30 18:25 53.43509 9.64507 4591 ft 231 kts 23°
2026-04-30 18:26 53.46508 9.66461 4235 ft 231 kts 27°
2026-04-30 18:26 53.47750 9.68051 4000 ft 222 kts 52°
2026-04-30 18:26 53.48730 9.70024 3968 ft 224 kts 52°
2026-04-30 18:27 53.50678 9.73955 3498 ft 213 kts 52°
2026-04-30 18:27 53.51614 9.75833 3163 ft 202 kts 52°
2026-04-30 18:28 53.53355 9.79313 2729 ft 190 kts 52°
2026-04-30 18:28 53.54197 9.80999 2428 ft 187 kts 52°
2026-04-30 18:28 53.55814 9.84238 1921 ft 166 kts 53°
2026-04-30 18:29 53.56500 9.85615 1779 ft 144 kts 53°
2026-04-30 18:29 53.58329 9.89315 1152 ft 135 kts 53°
2026-04-30 18:30 53.59543 9.91764 800 ft 138 kts 52°
2026-04-30 18:30 53.60791 9.94272 451 ft 141 kts 52°
2026-04-30 18:31 53.61416 9.95537 272 ft 138 kts 52°
2026-04-30 18:31 53.62577 9.97884 41 ft 107 kts 50°
2026-04-30 18:32 53.63170 9.99095 46 ft 35 kts 49°
2026-04-30 18:32 53.63291 9.99418 47 ft 29 kts 81°
2026-04-30 18:32 53.63280 9.99629 48 ft 0 kts 99°
2026-04-30 18:33 53.63279 9.99644 48 ft 7 kts 99°
2026-04-30 18:34 53.63277 9.99732 48 ft 7 kts 84°
2026-04-30 18:34 53.63321 9.99848 48 ft 6 kts 51°
2026-04-30 18:34 53.63347 9.99900 48 ft 6 kts 47°
2026-04-30 18:35 53.63360 9.99958 48 ft 5 kts 109°
2026-04-30 18:35 53.63339 9.99994 48 ft 4 kts 142°
2026-04-30 18:35 53.63318 10.00023 48 ft 2 kts 141°
2026-04-30 18:36 53.63313 10.00030 48 ft 0 kts 141°
2026-04-30 18:55 53.63313 10.00029 49 ft 0 kts 141°